Torna al catalogo

STARLINK-33874

AttivoComunicazioniVLEO
NORAD 63825·PAYLOAD·🇺🇸 United States

Lanciato May 4, 2025 da Cape Canaveral Space Force Station

Loading…

Prossimi Passaggi (prossime 24 ore)

TLE

AggiornatoSource: CelesTrak SupGP

Epoca: Sep 15, 2026, 02:58 UTC

1 63825C 25092X   26258.12409722 -.00014588  00000+0 -52847-3 0  2586
2 63825  43.0026 182.7900 0001337 272.1809 151.0586 15.27579600    10

Traccia STARLINK-33874 in tempo reale con AllMySat

Download on the App Store